Temp
2 2 2 2 1 1 2 1 1 1 2 1 2 2 1 1 1 1 0 -1 -1 -2 -3 -4 -3 -3 -3
1 1 1 1 1 1 1 2 2 2 2 2 2 2 2 1 1 1 -0 -1 -2 -3 -5 -4 -3 -4 -4
1 1 1 1 1 1 1 1 1 2 2 2 2 2 2 1 1 0 -1 -2 -3 -3 -5 -4 -3 -4 -4
1 1 1 1 1 1 1 1 2 2 2 2 2 2 2 2 1 0 -3 -5 -5 -5 -4 -5 -4 -4 -4
1 0 0 0 1 1 1 1 1 2 2 2 2 2 2 1 1 -0 -2 -5 -5 -4 -5 -6 -5 -5 -5
0 -0 -0 0 1 1 1 2 1 1 1 1 1 1 1 1 1 -1 -5 -5 -6 -5 -5 -5 -5 -5 -5
-1 -0 -0 -0 0 1 1 1 1 1 1 1 1 1 1 0 -0 -3 -5 -5 -5 -5 -5 -5 -5 -5 -5
-1 -0 -0 -0 0 0 0 0 1 1 0 -0 0 0 0 -0 -0 -2 -5 -6 -5 -5 -5 -5 -6 -5 -5
-1 -1 -1 -1 -0 -0 -0 -0 -0 -0 -0 -1 -1 -1 -1 -1 -2 -3 -5 -6 -5 -5 -5 -6 -6 -6 -5
-1 -1 -1 -1 -1 -1 -1 -1 -0 -0 -1 -1 -1 -1 -2 -2 -3 -4 -5 -7 -6 -6 -6 -6 -6 -5 -6
-2 -2 -2 -2 -2 -2 -2 -1 -1 -1 -2 -1 -2 -2 -3 -3 -3 -4 -5 -6 -6 -6 -6 -6 -6 -6 -6
-2 -2 -2 -2 -2 -2 -2 -2 -2 -2 -2 -3 -3 -3 -3 -4 -4 -5 -5 -6 -6 -6 -6 -6 -6 -6 -6
-3 -3 -3 -3 -3 -3 -3 -3 -3 -3 -3 -2 -4 -4 -4 -4 -4 -5 -5 -5 -5 -5 -5 -5 -5 -5 -5
-4 -4 -4 -4 -4 -4 -3 -4 -4 -4 -3 -4 -4 -5 -4 -4 -5 -5 -5 -5 -5 -5 -5 -5 -5 -5 -4
-5 -5 -5 -4 -4 -4 -4 -4 -4 -4 -4 -5 -5 -5 -5 -5 -6 -5 -5 -5 -5 -5 -5 -5 -5 -5 -5
-6 -6 -5 -5 -5 -5 -5 -4 -4 -5 -5 -5 -5 -5 -5 -6 -6 -6 -6 -6 -5 -5 -5 -5 -5 -5 -6
-6 -6 -6 -6 -5 -5 -5 -5 -5 -5 -6 -6 -6 -6 -6 -7 -6 -6 -6 -6 -6 -6 -6 -6 -6 -6 -6
Height
3139 3137 3137 3134 3131 3130 3129 3128 3126 3124 3121 3119 3117 3115 3113 3112 3109 3109 3108 3106 3104 3102 3102 3102 3101 3101 3102
3134 3131 3129 3127 3125 3123 3123 3121 3119 3117 3116 3113 3111 3108 3106 3104 3102 3101 3099 3098 3097 3096 3095 3096 3097 3095 3096
3124 3123 3123 3120 3119 3117 3115 3114 3111 3111 3108 3106 3103 3102 3099 3098 3096 3092 3091 3090 3090 3092 3092 3090 3092 3093 3091
3118 3117 3116 3114 3112 3110 3107 3105 3104 3101 3099 3097 3095 3092 3091 3089 3086 3084 3083 3083 3084 3086 3085 3084 3085 3084 3086
3112 3111 3109 3107 3105 3102 3100 3098 3096 3093 3092 3088 3088 3085 3083 3082 3080 3077 3076 3077 3079 3081 3081 3080 3081 3081 3080
3104 3101 3100 3101 3098 3095 3093 3090 3088 3086 3084 3081 3079 3079 3077 3075 3072 3070 3069 3072 3072 3073 3073 3073 3074 3075 3075
3095 3094 3093 3091 3087 3085 3084 3082 3080 3078 3078 3075 3072 3070 3069 3067 3065 3064 3064 3065 3068 3067 3067 3069 3068 3068 3069
3086 3085 3084 3082 3081 3077 3076 3073 3071 3070 3068 3069 3066 3062 3060 3058 3057 3056 3056 3058 3060 3062 3061 3061 3063 3062 3062
3078 3076 3074 3073 3072 3071 3069 3067 3065 3063 3061 3058 3058 3057 3055 3051 3050 3049 3048 3050 3052 3052 3053 3055 3056 3055 3055
3071 3070 3067 3064 3064 3065 3063 3059 3058 3056 3054 3054 3052 3049 3048 3046 3046 3043 3044 3044 3042 3044 3046 3047 3047 3048 3047
3062 3062 3060 3056 3055 3055 3054 3051 3051 3052 3049 3045 3045 3044 3042 3043 3041 3040 3039 3039 3037 3038 3039 3039 3039 3040 3041
3055 3054 3052 3048 3047 3047 3046 3045 3044 3043 3042 3041 3040 3039 3037 3038 3032 3033 3033 3032 3031 3031 3032 3032 3033 3033 3035
3046 3043 3042 3043 3040 3039 3038 3039 3037 3035 3035 3033 3034 3031 3031 3032 3031 3027 3028 3027 3027 3027 3027 3028 3029 3029 3030
3036 3035 3032 3032 3034 3033 3032 3031 3029 3030 3027 3027 3025 3028 3024 3024 3024 3021 3019 3021 3022 3023 3023 3022 3023 3024 3025
3027 3026 3023 3023 3023 3023 3023 3022 3021 3021 3020 3020 3021 3022 3021 3018 3018 3015 3015 3014 3015 3017 3018 3017 3018 3019 3021
3017 3015 3015 3014 3012 3013 3016 3013 3012 3014 3014 3010 3014 3014 3015 3015 3011 3007 3009 3009 3009 3011 3012 3011 3012 3014 3016
3005 3006 3004 3002 3001 3003 3005 3005 3002 3004 3006 3005 3005 3007 3007 3007 3005 3002 3002 3003 3004 3004 3005 3006 3006 3008 3010
Wind_Speed
30 26 26 24 23 23 24 26 26 27 27 26 26 27 29 28 30 31 31 30 28 25 22 19 19 20 21
30 26 26 25 24 26 27 28 27 27 28 27 28 29 30 30 31 32 31 29 23 23 21 22 19 19 19
26 26 26 25 27 29 30 29 28 28 30 30 29 29 30 31 31 32 31 25 19 20 25 26 21 17 19
27 26 26 27 29 30 30 30 30 31 32 32 30 30 30 31 29 27 22 26 25 24 25 23 22 18 19
28 27 28 30 31 31 29 30 31 32 31 30 31 30 31 31 29 25 24 19 19 21 24 19 23 18 19
28 27 30 31 32 31 31 30 30 29 27 28 28 29 29 28 26 23 20 24 22 27 23 18 19 22 23
27 29 31 31 30 30 30 30 28 27 26 26 27 28 29 26 24 20 18 19 22 22 23 21 24 23 21
29 31 33 32 31 30 28 26 26 27 27 26 26 26 26 23 24 19 18 19 20 23 25 24 21 21 23
30 31 32 33 31 29 27 26 26 26 27 26 25 24 24 22 22 19 21 21 23 27 25 22 25 27 28
31 33 33 33 31 28 26 25 26 27 25 25 24 23 20 19 19 19 20 21 23 25 23 25 28 30 22
31 32 32 30 27 26 25 24 25 27 25 24 22 23 20 17 16 15 17 21 25 28 31 31 27 21 19
32 31 30 28 26 25 25 25 24 25 24 24 22 21 18 18 16 16 15 15 17 18 18 18 18 17 17
31 30 28 28 27 26 26 25 25 24 24 23 22 20 19 18 17 17 17 15 15 17 18 17 17 16 16
30 28 27 27 28 28 26 25 24 24 23 22 21 21 20 19 18 18 17 17 17 16 17 17 18 18 18
28 27 26 28 29 28 27 25 25 25 24 21 21 21 21 20 19 19 18 18 18 16 17 17 18 19 18
28 28 28 30 29 28 28 26 26 25 23 23 24 21 20 22 19 20 19 18 18 19 18 15 17 20 23
28 28 30 30 29 27 28 26 24 24 23 23 25 22 19 21 21 21 20 18 19 19 20 20 19 19 21
Wind_Direction
279 280 281 285 286 291 293 294 295 297 296 298 299 301 298 300 298 297 293 289 291 291 294 281 298 288 287
277 280 280 285 291 292 294 293 295 294 297 300 299 299 301 297 298 296 292 292 288 287 294 285 287 285 286
280 279 282 289 294 295 295 298 293 296 299 300 298 301 300 301 297 291 286 286 283 269 279 284 290 282 293
277 281 288 289 291 294 295 293 294 297 298 299 300 300 302 299 298 293 280 269 278 264 275 281 278 285 283
279 283 287 291 292 293 294 293 296 295 297 297 298 299 301 300 300 287 285 269 278 276 267 265 285 281 281
277 285 291 294 296 298 298 298 296 298 297 295 298 300 300 298 294 285 262 271 259 263 271 269 266 279 287
284 288 290 293 295 298 299 300 299 298 299 301 302 302 301 301 295 286 279 273 276 267 263 272 282 271 281
286 289 292 295 297 297 293 293 295 296 300 306 307 304 304 302 296 285 258 261 260 257 263 278 278 271 283
284 287 290 291 291 290 286 289 293 300 303 303 307 311 311 305 297 289 252 253 262 263 270 262 267 276 284
286 289 289 290 286 286 287 292 296 296 300 304 307 307 306 305 295 288 276 258 258 262 263 262 270 280 266
286 291 294 290 283 283 284 289 296 299 299 299 299 299 305 308 305 294 281 271 266 266 268 271 270 262 249
288 292 289 283 278 277 282 287 293 294 296 298 298 298 300 297 299 295 290 283 280 276 271 265 260 253 244
287 286 282 279 276 278 282 287 290 292 293 295 294 295 297 294 294 290 289 288 280 276 272 263 255 248 245
283 284 284 283 281 281 282 283 286 287 286 287 291 293 294 290 287 281 283 282 277 272 266 259 256 251 238
281 286 287 285 282 281 279 279 281 280 282 288 291 293 292 290 285 282 279 274 272 271 264 258 250 236 227
277 282 284 286 284 284 279 276 277 278 280 282 283 286 289 286 283 280 274 272 271 263 259 253 249 244 243
276 279 281 281 280 282 277 272 272 273 276 275 277 279 281 284 281 276 273 268 268 267 260 250 247 247 255